Regional Weather Roundup
Issued by NWS

Home | Current Version | Previous Version | Text Only | Print | Product List | Glossary Off
Versions: 1 2 3 4 5 6 7 8 9 10 11 12 13 14 15 16 17 18 19 20 21 22 23 24 25 26 27 28

000
ASUS45 KTFX 151510
RWRMT
MONTANA REGIONAL WEATHER ROUNDUP
NATIONAL WEATHER SERVICE GREAT FALLS MT
900 AM MDT TUE AUG 15 2017

NOTE: "FAIR" INDICATES FEW OR NO CLOUDS BELOW 12000 FEET WITH NO
SIGNIFICANT WEATHER AND/OR OBSTRUCTIONS TO VISIBILITY.

MTZ001>007-043-151600-
WEST OF THE DIVIDE

CITY           SKY/WX    TMP DP  RH WIND       PRES   REMARKS
KALISPELL      SUNNY     56  44  64 CALM      29.95R
MISSOULA       MOSUNNY   52  40  63 CALM      29.99R
BUTTE          CLOUDY    50  34  54 CALM      30.03S
MULLAN PASS    MOSUNNY   51  32  48 CALM      30.03R
ANACONDA         N/A     55  34  44 S6        29.99F
DEER LODGE       N/A     50  37  62 CALM      30.02S
EUREKA           N/A     55  43  62 MISG        N/A
HAMILTON         N/A     54  41  62 CALM      29.99R
LIBBY            N/A     52  37  58 CALM      29.96R
RONAN            N/A     53  47  80 CALM      30.00R
$$

MTZ008-052>055-151600-
SOUTHWEST MONTANA

CITY           SKY/WX    TMP DP  RH WIND       PRES   REMARKS
BOZEMAN        SUNNY     59  49  69 CALM      29.99R
DILLON         SUNNY     56  46  69 SW3       30.01R
W YELLOWSTONE  CLOUDY    45  46 100 CALM      30.09R
ENNIS          CLOUDY    54  48  82 CALM      30.07R
THREE FORKS      N/A     57  49  75 CALM      29.98R
$$

MTZ009-010-012-014-046-048-049-054-151600-
EAST SLOPES AND CENTRAL MONTANA

CITY           SKY/WX    TMP DP  RH WIND       PRES   REMARKS
CUT BANK       SUNNY     52  43  71 N5        29.95R
GREAT FALLS    MOSUNNY   57  42  57 CALM      29.96R
MALMSTROM AFB  MOSUNNY   55  44  65 CALM      29.95S
HELENA         MOSUNNY   58  38  47 CALM      29.97S
CHOTEAU          N/A     59  41  51 SW5       29.96S
$$

MTZ011-013-016-021-045-047-050-051-151600-
NORTH CENTRAL MONTANA

CITY           SKY/WX    TMP DP  RH WIND       PRES   REMARKS
HAVRE          MOSUNNY   55  48  77 W6        29.94R
LEWISTOWN      SUNNY     56  41  57 W10       29.96S
N BAR RANCH      N/A     59  41  51 NW10      29.97R
CHINOOK          N/A     55  48  76 W12       29.92R
$$

MTZ017>020-022>027-061-062-151600-
NORTHEAST MONTANA

CITY           SKY/WX    TMP DP  RH WIND       PRES   REMARKS
GLASGOW        PTSUNNY   56  55  97 NW5       29.84R FOG
SIDNEY         CLOUDY    61  59  93 CALM      29.85S
WOLF POINT     FOG       58  57  97 NE3       29.84R VSB 1/4
MALTA          SUNNY     64  46  52 NW9       29.88R
POPLAR           N/A     57  57 100 CALM      29.84F VSB 3/4
SCOBEY           N/A     57  54  90 E1        29.84S VSB 0
$$

MTZ028>42-056>058-151600-
SOUTHCENTRAL AND SOUTHEAST MONTANA

CITY           SKY/WX    TMP DP  RH WIND       PRES   REMARKS
BAKER          CLOUDY    61  58  90 E3        29.87S
BILLINGS       CLOUDY    62  46  55 SW8       29.90R
LIVINGSTON     CLOUDY    59  49  69 NW9       29.97R
MILES CITY     CLOUDY    61  55  81 SE3       29.85R
BIG TIMBER     SUNNY     61  48  63 W14       29.98R
EKALAKA          N/A     60  56  87 CALM      29.86F
FORSYTH          N/A     64  54  68 CALM      29.84R
LAUREL           N/A     64  48  56 S6        29.91R
$$

REGIONAL REPORTS...DAKOTAS

CITY           SKY/WX    TMP DP  RH WIND       PRES   REMARKS
WILLISTON      CLOUDY    66  61  84 S6        29.85S
MINOT          LGT RAIN  62  61  96 E7        29.88R
DICKINSON      CLOUDY    61  60  97 E6        29.86S
BEACH          CLOUDY    61  61 100 SE7       29.89S
CROSBY           N/A     64  64 100 S8        29.85R
TIOGA            N/A     64  64 100 S9        29.87S
WATFORD CITY   PTSUNNY   63  63 100 SE5       29.85S
BISMARCK       CLOUDY    65  61  87 SE9       29.88S
GRAND FORKS    PTSUNNY   72  63  73 S8        29.92F
FARGO          CLOUDY    69  63  81 SE9       29.94R
BUFFALO SD       N/A     61  60  97 NE5       29.81R
RAPID CITY     LGT RAIN  63  62  97 E7        29.88R
$$

REGIONAL REPORTS...WYOMING/IDAHO/WASHINGTON

CITY           SKY/WX    TMP DP  RH WIND       PRES   REMARKS
GILLETTE       CLOUDY    63  58  83 NW7       29.91R
SHERIDAN       RAIN      58  55  90 W12       29.94R
BUFFALO WY     LGT RAIN  57  50  77 N14       29.97R
CODY           LGT RAIN  55  49  80 W8        30.00R
YELLOWSTONE LA   N/A     50  42  74 CALM      30.13R
IDAHO FALLS    CLOUDY    52  49  89 CALM      30.03R
SALMON         SUNNY    N/A N/A N/A NW3       30.00R
BOISE          SUNNY     64  41  42 E5        29.92R
SPOKANE        MOSUNNY   58  42  55 NE5       29.93R
$$

REGIONAL REPORTS...ALBERTA

CITY           SKY/WX    TMP DP  RH WIND       PRES   REMARKS
EDMONTON       SUNNY     55  45  67 W10G18    29.78S
CALGARY        SUNNY     54  41  62 NW3       29.91R
LETHBRIDGE     SUNNY     50  46  87 SW6       29.91S
MEDICINE HAT   SUNNY     54  50  87 SW10      29.90R
$$

REGIONAL REPORTS...SASKATCHEWAN

CITY           SKY/WX    TMP DP  RH WIND       PRES   REMARKS
SWIFT CURRENT  SUNNY     55  48  76 W15G21    29.86R
REGINA         PTSUNNY   63  57  82 S8        29.84R
SASKATOON      PTSUNNY   57  54  88 SW10G18   29.78R
$$




USA.gov is the U.S. government's official web portal to all federal, state and local government web resources and services.